Weather History for KMSS - November, 2012

Change the Weather History Date:

Friday, November 9, 2012

  Actual Average Record
Temperature  
Mean Temperature 30 °F 38 °F  
Max Temperature 41 °F 47 °F 70 °F (2009)
Min Temperature 19 °F 30 °F 9 °F (1971)
Degree Days  
Heating Degree Days 35 27  
Month to date heating degree days 280 231  
Since 1 July heating degree days 925 1112  
Cooling Degree Days 0 0  
Month to date cooling degree days 0  
Year to date cooling degree days 363  
Moisture  
Dew Point 27 °F    
Average Humidity 76    
Maximum Humidity 92    
Minimum Humidity 59    
Precipitation  
Precipitation 0.00 in 0.10 in 0.94 in (1966)
Month to date precipitation 0.17 0.97  
Year to date precipitation 26.06 30.47  
Sea Level Pressure  
Sea Level Pressure 30.11 in    
Wind  
Wind Speed 6 mph (SW)    
Max Wind Speed 12 mph    
Max Gust Speed 15 mph    
Visibility 10 miles    
Events      
T = Trace of Precipitation, MM = Missing Value Source: NWS Daily Summary

Daily Weather History Graph

Daily Weather History Graph

Search for Another Location

Airport or City:

Trip Planner

Search our weather history database for the weather conditions in past years. The results will help you decide how hot, cold, wet, or windy it might be!

Date:

Astronomy

Nov. 09, 2012 Rise Set
Actual Time 6:49 AM EST 4:36 PM EST
Civil Twilight 6:18 AM EST 5:07 PM EST
Nautical Twilight 5:42 AM EST 5:43 PM EST
Astronomical Twilight 5:08 AM EST 6:17 PM EST
Moon 1:33 AM EST (11/9) 1:59 PM EST (11/9)
Length of Visible Light 10h 49m
Length of Day
9h 47m
Waning Crescent, 23% of the Moon is Illuminated
Nov 9
Waning Crescent
Nov 13
New
Nov 20
First Quarter
Nov 28
Full
Dec 6
Last Quarter

Hourly Weather History & Observations

Time (EST) Temp. Windchill Dew Point Humidity Pressure Visibility Wind Dir Wind Speed Gust Speed Precip Events Conditions
12:53 AM 21.9 °F 17.2 °F 19.0 °F 89% 30.05 in 10.0 mi SSW 3.5 mph - N/A   Clear
1:53 AM 19.9 °F - 18.0 °F 92% 30.06 in 10.0 mi Calm Calm - N/A   Clear
2:53 AM 21.0 °F 16.2 °F 19.0 °F 92% 30.07 in 10.0 mi SSW 3.5 mph - N/A   Clear
3:53 AM 23.0 °F 18.4 °F 19.0 °F 85% 30.07 in 10.0 mi SSW 3.5 mph - N/A   Clear
4:53 AM 21.9 °F 17.2 °F 19.0 °F 89% 30.07 in 10.0 mi South 3.5 mph - N/A   Clear
5:53 AM 24.1 °F 18.2 °F 19.9 °F 84% 30.09 in 10.0 mi WSW 4.6 mph - N/A   Mostly Cloudy
6:53 AM 21.9 °F 15.7 °F 19.9 °F 92% 30.11 in 10.0 mi SSW 4.6 mph - N/A   Partly Cloudy
7:53 AM 27.0 °F 19.5 °F 23.0 °F 85% 30.12 in 10.0 mi SSW 6.9 mph - N/A   Mostly Cloudy
8:53 AM 30.0 °F 22.4 °F 25.0 °F 82% 30.13 in 10.0 mi SW 8.1 mph - N/A   Overcast
9:53 AM 33.1 °F 26.9 °F 26.1 °F 75% 30.13 in 10.0 mi SW 6.9 mph - N/A   Overcast
10:53 AM 37.0 °F 30.4 °F 25.0 °F 62% 30.12 in 10.0 mi SW 9.2 mph - N/A   Overcast
11:53 AM 39.0 °F 32.8 °F 26.1 °F 60% 30.11 in 10.0 mi SW 9.2 mph - N/A   Overcast
12:29 PM 39.2 °F 33.0 °F 26.6 °F 61% 30.08 in 10.0 mi SW 9.2 mph - N/A   Overcast
12:53 PM 39.0 °F 33.4 °F 27.0 °F 62% 30.10 in 10.0 mi SW 8.1 mph - N/A   Overcast
1:16 PM 39.2 °F 34.2 °F 26.6 °F 61% 30.08 in 10.0 mi SW 6.9 mph - N/A   Overcast
1:53 PM 39.9 °F 33.9 °F 27.0 °F 60% 30.09 in 10.0 mi SW 9.2 mph - N/A   Overcast
2:26 PM 39.2 °F 33.6 °F 28.4 °F 65% 30.07 in 10.0 mi SW 8.1 mph - N/A   Overcast
2:53 PM 39.9 °F 32.9 °F 28.9 °F 65% 30.09 in 10.0 mi SW 11.5 mph - N/A   Overcast
3:53 PM 41.0 °F 39.0 °F 30.9 °F 67% 30.11 in 10.0 mi West 3.5 mph - N/A   Overcast
4:53 PM 39.9 °F 36.7 °F 30.9 °F 70% 30.12 in 10.0 mi SW 4.6 mph - N/A   Overcast
5:28 PM 39.2 °F 35.0 °F 30.2 °F 70% 30.10 in 10.0 mi SW 5.8 mph - N/A   Overcast
5:53 PM 39.9 °F 35.1 °F 30.9 °F 70% 30.13 in 10.0 mi SW 6.9 mph - N/A   Overcast
6:08 PM 39.2 °F 35.0 °F 30.2 °F 70% 30.11 in 10.0 mi SW 5.8 mph - N/A   Overcast
6:53 PM 39.9 °F 35.1 °F 30.9 °F 70% 30.14 in 10.0 mi SW 6.9 mph - N/A   Overcast
7:45 PM 39.2 °F 35.9 °F 32.0 °F 75% 30.13 in 10.0 mi SW 4.6 mph - N/A   Overcast
7:53 PM 39.9 °F 35.8 °F 33.1 °F 77% 30.15 in 10.0 mi SW 5.8 mph - N/A   Overcast
8:22 PM 39.2 °F 34.2 °F 33.8 °F 81% 30.13 in 10.0 mi SW 6.9 mph - N/A   Overcast
8:53 PM 39.0 °F 34.0 °F 33.1 °F 79% 30.16 in 10.0 mi SW 6.9 mph - N/A   Overcast
9:53 PM 39.0 °F 34.8 °F 34.0 °F 82% 30.16 in 10.0 mi SW 5.8 mph - N/A   Overcast
10:53 PM 36.0 °F 32.1 °F 32.0 °F 86% 30.17 in 10.0 mi SW 4.6 mph - N/A   Mostly Cloudy
11:53 PM 37.0 °F 33.3 °F 33.1 °F 86% 30.18 in 10.0 mi WSW 4.6 mph - N/A   Mostly Cloudy